Flag for U.S.A. Weather past 2 weeks in Wichita Falls, Texas, U.S.A.

Now
89 °F

Partly sunny.


Feels Like: 93 °F
Forecast: 72 / 95 °F
Wind: 5 mph from East

Location: Wichita Falls - Sheppard Air Force Base

Current Time: Aug 3, 2015 at 5:19:42 PM

Latest Report: Aug 3, 2015 at 3:52 PM


Visibility: 10 mi

Pressure: 29.87 "Hg

Humidity: 50%

Dew point: 68 °F

Location of Wichita FallsLocation

Historic Weather in Wichita Falls — Graph

°F

Wichita Falls temperature yesterday

Maximum temperature yesterday: 93 °F (at 4:52 PM)
Minimum temperature yesterday: 75 °F (at 2:52 AM)
Average temperature yesterday: 82 °F

Past Weeks' High & Low Weather Summary

 TemperatureHumidityPressure
High100 °F (Jul 29, 3:52 PM)97% (Jul 22, 4:52 AM)30.07 "Hg (Jul 22, 4:52 AM)
Low72 °F (Jul 25, 6:52 AM)30% (Jul 30, 4:52 PM)29.72 "Hg (Jul 21, 6:52 PM)
Average85 °F62%29.89 "Hg
* Reported Jul 19 3:52 PM — Aug 3 3:52 PM, Wichita Falls, Weather by CustomWeather, © 2015

Note: Actual official high and low records may vary slightly from our data, if they occured in-between our weather recording intervals... More about our weather records

Advertising

Wichita Falls weather history for previous 24 hours

 ConditionsComfort  
Time TempWeatherWind HumidityBarometerVisibility
3:52 PM
Mon, Aug 3
89 °FPartly sunny.5 mph50%29.87 "Hg10 mi
2:52 PM86 °FPartly sunny.6 mph55%29.89 "Hg10 mi
1:52 PM81 °FMore clouds than sun.7 mph69%29.90 "Hg10 mi
12:52 PM76 °FLight rain. Broken clouds.5 mph88%29.90 "Hg6 mi
11:52 AM81 °FScattered clouds.No wind65%29.92 "Hg10 mi
10:52 AM76 °FScattered clouds.8 mph77%29.90 "Hg10 mi
9:52 AM74 °FLight rain. Broken clouds.6 mph79%29.92 "Hg10 mi
8:52 AM75 °FSunny.5 mph71%29.92 "Hg10 mi
7:52 AM75 °FBroken clouds.7 mph69%29.92 "Hg10 mi
6:52 AM75 °FMostly cloudy.6 mph66%29.91 "Hg10 mi
5:52 AM77 °FOvercast.12 mph60%29.90 "Hg10 mi
4:52 AM74 °FPassing clouds.7 mph71%29.84 "Hg10 mi
3:52 AM73 °FPassing clouds.7 mph76%29.83 "Hg10 mi
2:52 AM74 °FPassing clouds.7 mph74%29.83 "Hg10 mi
1:52 AM75 °FClear.7 mph74%29.84 "Hg10 mi
12:52 AM77 °FClear.7 mph69%29.85 "Hg10 mi
11:52 PM
Sun, Aug 2
77 °FClear.5 mph69%29.84 "Hg10 mi
10:52 PM79 °FClear.9 mph62%29.84 "Hg10 mi
9:52 PM79 °FClear.7 mph67%29.83 "Hg10 mi
8:52 PM82 °FSunny.8 mph58%29.82 "Hg10 mi
7:52 PM87 °FSunny.12 mph48%29.81 "Hg10 mi
6:52 PM90 °FSunny.16 mph43%29.81 "Hg10 mi
5:52 PM92 °FSunny.17 mph38%29.83 "Hg10 mi
Weather by CustomWeather, © 2015

See weather overviewHow to use our weather pages